DT_LEITURA;HR_LEITURA;MED-PressaoAtm[hPa];VAL-TempExt[oC];VAL-UmidExt[%UR];VAL-TempInt[oC];VAL-UmidInt[%UR];Dir-Vento[grau];Vel-Vento[m/s];Precipitação[mm/h]
01/09/2026;00:04:00;1008,4;;;19,0;84;19;2,8;0,0
01/09/2026;00:09:00;1007,8;;;19,0;84;26;3,3;0,0
01/09/2026;00:14:00;1007,4;;;19,0;84;24;3,2;0,0
01/09/2026;00:19:00;1006,9;;;18,9;84;25;3,9;0,0
01/09/2026;00:24:00;1006,6;;;18,9;84;23;4,3;0,0
01/09/2026;00:29:00;1006,9;;;18,9;84;16;3,7;0,0
01/09/2026;00:34:00;1007,0;;;18,9;84;17;3,3;0,0
01/09/2026;00:39:00;1006,9;;;18,9;84;22;4,0;0,0
01/09/2026;00:44:00;1007,1;;;19,0;84;20;4,3;0,0
01/09/2026;00:49:00;1007,2;;;19,0;84;21;4,0;0,0
01/09/2026;00:54:00;1006,8;;;19,0;84;14;3,7;0,0
01/09/2026;00:59:00;1007,2;;;19,0;84;14;2,8;0,0
01/09/2026;01:04:00;1007,4;;;19,0;84;26;2,7;0,0
01/09/2026;01:09:00;1007,2;;;19,0;84;18;2,1;0,0
01/09/2026;01:14:00;1007,1;;;18,9;84;36;0,8;0,0
01/09/2026;01:19:00;1007,0;;;18,9;84;20;1,0;0,0
01/09/2026;01:24:00;1006,7;;;18,9;84;57;0,5;0,0
01/09/2026;01:29:00;1006,3;;;18,9;84;41;0,9;0,0
01/09/2026;01:34:00;1006,2;;;18,9;84;287;0,9;0,0
01/09/2026;01:39:00;1006,3;;;18,9;84;239;1,9;0,0
01/09/2026;01:44:00;1006,4;;;18,9;84;226;2,7;0,0
01/09/2026;01:49:00;1006,5;;;18,9;84;222;2,2;0,0
01/09/2026;01:54:00;1006,4;;;18,9;84;227;2,7;0,0
01/09/2026;01:59:00;1006,1;;;18,9;84;210;2,1;0,0
01/09/2026;02:04:00;1006,2;;;19,0;84;242;2,7;0,0
01/09/2026;02:09:00;1006,5;;;19,0;84;245;2,9;0,0
01/09/2026;02:14:00;1006,6;;;19,0;84;248;3,6;0,0
01/09/2026;02:19:00;1006,5;;;19,0;84;236;4,0;0,0
01/09/2026;02:24:00;1006,5;;;18,9;84;244;3,4;0,0
01/09/2026;02:29:00;1006,4;;;18,9;84;242;3,0;0,0
01/09/2026;02:34:00;1006,2;;;18,9;84;236;3,3;0,0
01/09/2026;02:39:00;1006,0;;;18,9;84;242;3,3;0,0
01/09/2026;02:44:00;1006,1;;;18,9;84;241;4,4;0,0
01/09/2026;02:49:00;1006,0;;;18,9;84;234;4,8;0,0
01/09/2026;02:54:00;1005,9;;;18,8;84;234;3,7;0,0
01/09/2026;02:59:00;1005,8;;;18,8;84;236;3,4;0,0
01/09/2026;03:04:00;1005,8;;;18,8;84;238;2,7;0,0
01/09/2026;03:09:00;1005,7;;;18,7;84;189;0,7;0,0
01/09/2026;03:14:00;1005,8;;;18,7;84;231;1,3;0,0
01/09/2026;03:19:00;1005,9;;;18,7;84;227;2,1;0,0
01/09/2026;03:24:00;1005,7;;;18,7;84;248;3,0;0,0
01/09/2026;03:29:00;1006,0;;;18,7;84;224;2,6;0,0
01/09/2026;03:34:00;1006,0;;;18,7;84;213;1,9;0,0
01/09/2026;03:39:00;1006,0;;;18,7;84;228;2,9;0,0
01/09/2026;03:44:00;1006,0;;;18,7;84;231;3,2;0,0
01/09/2026;03:49:00;1006,0;;;18,7;84;232;3,1;0,0
01/09/2026;03:54:00;1006,1;;;18,7;84;229;2,6;0,0
01/09/2026;03:59:00;1006,1;;;18,7;84;233;1,9;0,0
01/09/2026;04:04:00;1006,1;;;18,7;84;233;1,7;0,0
01/09/2026;04:09:00;1006,1;;;18,7;84;219;1,6;0,0
01/09/2026;04:14:00;1005,9;;;18,6;84;215;1,4;0,0
01/09/2026;04:19:00;1005,8;;;18,6;84;207;2,1;0,0
01/09/2026;04:24:00;1005,7;;;18,6;84;202;1,5;0,0
01/09/2026;04:29:00;1005,7;;;18,6;84;210;1,7;0,0
01/09/2026;04:34:00;1005,9;;;18,6;84;217;1,6;0,0
01/09/2026;04:39:00;1005,9;;;18,6;84;195;1,9;0,0
01/09/2026;04:44:00;1005,8;;;18,6;84;225;2,2;0,0
01/09/2026;04:49:00;1005,9;;;18,6;84;247;3,0;0,0
01/09/2026;04:54:00;1005,9;;;18,6;85;250;3,8;0,0
01/09/2026;04:59:00;1006,1;;;18,6;85;234;3,1;0,0
01/09/2026;05:04:00;1006,1;;;18,6;85;229;2,4;0,0
01/09/2026;05:09:00;1006,1;;;18,7;85;228;3,3;0,0
01/09/2026;05:14:00;1006,1;;;18,7;85;243;4,1;0,0
01/09/2026;05:19:00;1006,1;;;18,7;85;239;5,0;0,0
01/09/2026;05:24:00;1006,1;;;18,7;85;238;5,2;0,0
01/09/2026;05:29:00;1006,1;;;18,7;85;246;4,0;0,0
01/09/2026;05:34:00;1006,0;;;18,8;85;237;4,7;0,0
01/09/2026;05:39:00;1006,1;;;18,8;85;243;4,6;0,0
01/09/2026;05:44:00;1006,1;;;18,9;85;239;5,3;0,0
01/09/2026;05:49:00;1006,1;;;18,9;85;241;4,9;0,0
01/09/2026;05:54:00;1006,1;;;18,9;85;247;5,8;0,0
01/09/2026;05:59:00;1006,1;;;19,0;85;239;5,8;0,0
01/09/2026;06:04:00;1006,2;;;19,0;85;234;4,5;0,0
01/09/2026;06:09:00;1006,0;;;19,0;84;237;4,1;0,0
01/09/2026;06:14:00;1006,0;;;19,0;84;227;4,0;0,0
01/09/2026;06:19:00;1005,9;;;19,0;84;242;5,4;0,0
01/09/2026;06:24:00;1005,9;;;19,0;84;241;6,5;0,0
01/09/2026;06:29:00;1006,0;;;19,0;84;240;5,6;0,0
01/09/2026;06:34:00;1006,2;;;19,0;84;245;5,4;0,0
01/09/2026;06:39:00;1006,2;;;19,0;84;244;5,1;0,0
01/09/2026;06:44:00;1006,3;;;19,0;84;248;5,6;0,0
01/09/2026;06:49:00;1006,2;;;19,0;84;248;5,5;0,0
01/09/2026;06:54:00;1006,5;;;19,0;84;239;4,5;0,0
01/09/2026;06:59:00;1006,6;;;19,0;84;233;4,2;0,0
01/09/2026;07:04:00;1006,7;;;19,0;84;234;5,0;0,0
01/09/2026;07:09:00;1006,7;;;19,0;84;241;4,9;0,0
01/09/2026;07:14:00;1006,9;;;18,9;84;237;4,6;0,0
01/09/2026;07:19:00;1006,9;;;18,9;84;247;5,0;0,0
01/09/2026;07:24:00;1006,8;;;18,9;84;249;5,4;0,0
01/09/2026;07:29:00;1006,7;;;18,9;84;247;5,4;0,0
01/09/2026;07:34:00;1006,6;;;18,9;85;247;5,3;0,0
01/09/2026;07:39:00;1006,6;;;18,9;85;247;5,9;0,0
01/09/2026;07:44:00;1006,5;;;18,9;85;244;6,6;0,0
01/09/2026;07:49:00;1006,7;;;18,9;85;243;6,5;0,0
01/09/2026;07:54:00;1006,9;;;19,0;85;238;9,1;0,0
01/09/2026;07:59:00;1007,1;;;19,0;85;241;9,8;0,0
01/09/2026;08:04:00;1007,5;;;19,0;84;243;11,3;0,0
01/09/2026;08:09:00;1007,9;;;18,8;82;244;9,4;0,0
01/09/2026;08:14:00;1008,1;;;18,5;83;250;7,9;0,0
01/09/2026;08:19:00;1008,2;;;18,3;83;238;7,6;0,0
01/09/2026;08:24:00;1008,2;;;18,1;84;238;7,8;0,0
01/09/2026;08:29:00;1008,4;;;18,0;84;240;7,9;0,0
01/09/2026;08:34:00;1008,6;;;17,9;85;236;5,9;0,0
01/09/2026;08:39:00;1008,8;;;18,0;86;237;7,0;0,0
01/09/2026;08:44:00;1008,9;;;18,0;86;247;5,9;0,0
01/09/2026;08:49:00;1009,0;;;18,1;85;246;6,0;0,0
01/09/2026;08:54:00;1009,1;;;18,2;85;245;5,4;0,0
01/09/2026;08:59:00;1009,0;;;18,2;86;244;4,9;0,0
01/09/2026;09:04:00;1009,0;;;18,3;87;245;6,2;0,0
01/09/2026;09:09:00;1009,0;;;18,5;87;246;5,2;0,0
01/09/2026;09:14:00;1008,9;;;18,6;87;248;6,7;0,0
01/09/2026;09:19:00;1008,9;;;18,8;87;243;7,0;0,0
01/09/2026;09:24:00;1008,7;;;18,9;87;244;6,8;0,0
01/09/2026;09:29:00;1008,6;;;19,1;87;248;6,9;0,0
01/09/2026;09:34:00;1008,5;;;19,3;87;244;8,7;0,0
01/09/2026;09:39:00;1008,4;;;19,4;86;243;7,3;0,0
01/09/2026;09:44:00;1008,3;;;19,6;86;244;7,6;0,0
01/09/2026;09:49:00;1008,3;;;19,7;86;247;7,1;0,0
01/09/2026;09:54:00;1008,4;;;19,8;86;238;7,3;0,0
01/09/2026;09:59:00;1008,3;;;20,0;86;248;7,5;0,0
01/09/2026;10:04:00;1008,3;;;20,1;86;245;7,9;0,0
01/09/2026;10:09:00;1008,5;;;20,2;85;243;7,2;0,0
01/09/2026;10:14:00;1008,6;;;20,3;85;249;7,5;0,0
01/09/2026;10:19:00;1008,7;;;20,4;85;240;7,9;0,0
01/09/2026;10:24:00;1008,8;;;20,5;85;242;8,0;0,0
01/09/2026;10:29:00;1008,9;;;20,6;85;242;7,8;0,0
01/09/2026;10:34:00;1009,1;;;20,7;85;242;8,5;0,0
01/09/2026;10:39:00;1009,2;;;20,8;85;241;7,9;0,0
01/09/2026;10:44:00;1009,3;;;20,9;85;242;7,9;0,0
01/09/2026;10:49:00;1009,4;;;20,9;85;243;8,4;0,0
01/09/2026;10:54:00;1009,5;;;21,0;85;236;6,7;0,0
01/09/2026;10:59:00;1009,5;;;21,1;85;246;9,1;0,0
01/09/2026;11:04:00;1009,4;;;21,2;84;244;8,7;0,0
01/09/2026;11:09:00;1009,5;;;21,2;84;238;6,9;0,0
01/09/2026;11:14:00;1009,4;;;21,3;85;234;7,6;0,0
01/09/2026;11:19:00;1009,3;;;21,4;84;243;6,7;0,0
01/09/2026;11:24:00;1009,3;;;21,5;85;242;7,6;0,0
01/09/2026;11:29:00;1009,3;;;21,6;85;241;7,8;0,0
01/09/2026;11:34:00;1009,3;;;21,7;84;241;8,2;0,0
01/09/2026;11:39:00;1009,3;;;21,8;84;243;7,9;0,0
01/09/2026;11:44:00;1009,4;;;21,9;84;242;6,4;0,0
01/09/2026;11:49:00;1009,3;;;22,0;84;245;8,0;0,0
01/09/2026;11:54:00;1009,4;;;22,0;84;245;6,5;0,0
01/09/2026;11:59:00;1009,4;;;22,1;84;243;8,4;0,0
01/09/2026;12:04:00;1009,3;;;22,2;84;244;8,8;0,0
01/09/2026;12:09:00;1009,2;;;22,3;83;244;8,8;0,0
01/09/2026;12:14:00;1009,1;;;22,3;83;243;8,6;0,0
01/09/2026;12:19:00;1009,1;;;22,4;83;246;8,9;0,0
01/09/2026;12:24:00;1009,2;;;22,4;83;239;8,6;0,0
01/09/2026;12:29:00;1009,2;;;22,5;83;243;7,8;0,0
01/09/2026;12:34:00;1009,2;;;22,6;83;241;7,7;0,0
01/09/2026;12:39:00;1009,1;;;22,6;83;243;8,1;0,0
01/09/2026;12:44:00;1009,1;;;22,7;83;239;7,6;0,0
01/09/2026;12:49:00;1009,1;;;22,8;83;236;8,1;0,0
01/09/2026;12:54:00;1009,2;;;22,9;83;240;6,6;0,0
01/09/2026;12:59:00;1009,1;;;22,9;83;248;7,7;0,0
01/09/2026;13:04:00;1009,1;;;23,1;83;248;8,3;0,0
01/09/2026;13:09:00;1009,1;;;23,1;83;241;6,8;0,0
01/09/2026;13:14:00;1009,1;;;23,2;83;237;6,9;0,0
01/09/2026;13:19:00;1009,2;;;23,3;82;242;7,1;0,0
01/09/2026;13:24:00;1009,3;;;23,4;82;229;7,9;0,0
01/09/2026;13:29:00;1009,3;;;23,4;82;232;8,2;0,0
01/09/2026;13:34:00;1009,4;;;23,4;82;234;7,8;0,0
01/09/2026;13:39:00;1009,5;;;23,4;82;230;8,6;0,0
01/09/2026;13:44:00;1009,6;;;23,4;81;232;8,1;0,0
01/09/2026;13:49:00;1009,6;;;23,3;81;229;8,8;0,0
01/09/2026;13:54:00;1009,6;;;23,2;81;233;7,8;0,0
01/09/2026;13:59:00;1009,6;;;23,1;81;229;8,6;0,0
01/09/2026;14:04:00;1009,6;;;23,1;82;227;8,6;0,0
01/09/2026;14:09:00;1009,5;;;23,1;82;231;8,0;0,0
01/09/2026;14:14:00;1009,5;;;23,1;82;233;7,6;0,0
01/09/2026;14:19:00;1009,4;;;23,2;82;236;7,0;0,0
01/09/2026;14:24:00;1009,3;;;23,3;82;242;7,3;0,0
01/09/2026;14:29:00;1009,3;;;23,4;82;236;7,4;0,0
01/09/2026;14:34:00;1009,4;;;23,5;81;231;7,7;0,0
01/09/2026;14:39:00;1009,4;;;23,5;80;231;9,3;0,0
01/09/2026;14:44:00;1009,5;;;23,4;80;231;8,8;0,0
01/09/2026;14:49:00;1009,5;;;23,3;80;233;8,4;0,0
01/09/2026;14:54:00;1009,6;;;23,2;80;228;8,2;0,0
01/09/2026;14:59:00;1009,6;;;23,1;80;231;9,1;0,0
01/09/2026;15:04:00;1009,7;;;22,9;80;234;8,6;0,0
01/09/2026;15:09:00;1009,8;;;22,8;80;232;8,8;0,0
01/09/2026;15:14:00;1009,8;;;22,7;81;238;8,9;0,0
01/09/2026;15:19:00;1010,0;;;22,6;81;233;8,9;0,0
01/09/2026;15:24:00;1010,1;;;22,6;81;239;8,6;0,0
01/09/2026;15:29:00;1010,2;;;22,5;81;238;9,1;0,0
01/09/2026;15:34:00;1010,3;;;22,4;80;235;8,9;0,0
01/09/2026;15:39:00;1010,5;;;22,2;79;234;8,7;0,0
01/09/2026;15:44:00;1010,6;;;21,9;80;227;8,0;0,0
01/09/2026;15:49:00;1010,7;;;21,7;80;230;6,9;0,0
01/09/2026;15:54:00;1010,8;;;21,6;81;235;6,7;0,0
01/09/2026;15:59:00;1010,8;;;21,6;82;230;7,2;0,0
01/09/2026;16:04:00;1010,9;;;21,7;82;232;6,1;0,0
01/09/2026;16:09:00;1011,0;;;21,8;82;231;6,9;0,0
01/09/2026;16:14:00;1011,1;;;21,8;81;228;7,5;0,0
01/09/2026;16:19:00;1011,1;;;21,8;81;227;6,9;0,0
01/09/2026;16:24:00;1011,1;;;21,8;81;234;6,4;0,0
01/09/2026;16:29:00;1011,2;;;21,9;81;233;7,5;0,0
01/09/2026;16:34:00;1011,2;;;22,0;81;230;7,3;0,0
01/09/2026;16:39:00;1011,3;;;22,0;81;233;8,0;0,0
01/09/2026;16:44:00;1011,5;;;22,0;80;229;7,3;0,0
01/09/2026;16:49:00;1011,6;;;22,0;80;232;6,5;0,0
01/09/2026;16:54:00;1011,7;;;22,0;80;230;6,5;0,0
01/09/2026;16:59:00;1011,8;;;22,0;80;236;6,8;0,0
01/09/2026;17:04:00;1011,9;;;21,9;79;230;6,6;0,0
01/09/2026;17:09:00;1012,1;;;21,7;79;230;6,3;0,0
01/09/2026;17:14:00;1012,2;;;21,4;79;229;5,5;0,0
01/09/2026;17:19:00;1012,3;;;21,2;79;225;5,3;0,0
01/09/2026;17:24:00;1012,4;;;21,0;80;233;4,8;0,0
01/09/2026;17:29:00;1012,6;;;20,9;80;228;4,4;0,0
01/09/2026;17:34:00;1012,7;;;20,8;80;227;4,9;0,0
01/09/2026;17:39:00;1012,7;;;20,8;81;228;5,1;0,0
01/09/2026;17:44:00;1012,7;;;20,7;81;231;5,3;0,0
01/09/2026;17:49:00;1012,8;;;20,6;81;231;4,9;0,0
01/09/2026;17:54:00;1012,9;;;20,5;81;233;4,4;0,0
01/09/2026;17:59:00;1013,0;;;20,4;81;231;5,6;0,0
01/09/2026;18:04:00;1013,0;;;20,4;81;232;5,4;0,0
01/09/2026;18:09:00;1013,0;;;20,3;81;230;5,5;0,0
01/09/2026;18:14:00;1013,0;;;20,2;81;237;4,8;0,0
01/09/2026;18:19:00;1013,1;;;20,1;81;239;4,6;0,0
01/09/2026;18:24:00;1013,1;;;20,0;81;235;4,8;0,0
01/09/2026;18:29:00;1013,2;;;20,0;81;227;4,7;0,0
01/09/2026;18:34:00;1013,2;;;19,9;81;237;4,2;0,0
01/09/2026;18:39:00;1013,2;;;19,9;81;238;5,7;0,0
01/09/2026;18:44:00;1013,2;;;19,8;81;233;3,9;0,0
01/09/2026;18:49:00;1013,2;;;19,8;81;235;4,5;0,0
01/09/2026;18:54:00;1013,2;;;19,8;81;227;4,4;0,0
01/09/2026;18:59:00;1013,3;;;19,7;81;230;5,1;0,0
01/09/2026;19:04:00;1013,5;;;19,7;81;235;4,7;0,0
01/09/2026;19:09:00;1013,7;;;19,6;81;248;4,0;0,0
01/09/2026;19:14:00;1013,9;;;19,6;81;248;4,8;0,0
01/09/2026;19:19:00;1014,0;;;19,6;81;233;4,4;0,0
01/09/2026;19:24:00;1014,1;;;19,6;81;238;4,9;0,0
01/09/2026;19:29:00;1014,2;;;19,5;81;239;4,3;0,0
01/09/2026;19:34:00;1014,2;;;19,5;81;233;4,8;0,0
01/09/2026;19:39:00;1014,2;;;19,5;81;227;4,9;0,0
01/09/2026;19:44:00;1014,3;;;19,4;81;233;5,1;0,0
01/09/2026;19:49:00;1014,3;;;19,3;81;239;4,6;0,0
01/09/2026;19:54:00;1014,5;;;19,3;81;243;4,0;0,0
01/09/2026;19:59:00;1014,5;;;19,3;81;244;5,3;0,0
01/09/2026;20:04:00;1014,6;;;19,2;81;238;4,3;0,0
01/09/2026;20:09:00;1014,7;;;19,2;81;243;4,8;0,0
01/09/2026;20:14:00;1014,7;;;19,2;81;239;4,1;0,0
01/09/2026;20:19:00;1014,8;;;19,2;81;239;4,0;0,0
01/09/2026;20:24:00;1014,9;;;19,1;81;245;5,0;0,0
01/09/2026;20:29:00;1015,0;;;19,1;81;239;4,3;0,0
01/09/2026;20:34:00;1015,1;;;19,1;81;243;4,7;0,0
01/09/2026;20:39:00;1015,1;;;19,0;81;243;4,2;0,0
01/09/2026;20:44:00;1015,2;;;19,0;81;246;4,2;0,0
01/09/2026;20:49:00;1015,2;;;19,0;81;236;4,5;0,0
01/09/2026;20:54:00;1015,2;;;18,9;81;241;4,9;0,0
01/09/2026;20:59:00;1015,2;;;18,9;81;241;4,3;0,0
01/09/2026;21:04:00;1015,2;;;18,9;81;234;4,2;0,0
01/09/2026;21:09:00;1015,3;;;18,9;81;240;4,9;0,0
01/09/2026;21:14:00;1015,3;;;18,9;81;243;4,0;0,0
01/09/2026;21:19:00;1015,4;;;18,9;81;246;3,8;0,0
01/09/2026;21:24:00;1015,5;;;18,9;81;238;3,9;0,0
01/09/2026;21:29:00;1015,5;;;18,8;81;241;3,5;0,0
01/09/2026;21:34:00;1015,5;;;18,8;81;240;3,7;0,0
01/09/2026;21:39:00;1015,5;;;18,8;81;245;4,0;0,0
01/09/2026;21:44:00;1015,5;;;18,8;81;242;4,1;0,0
01/09/2026;21:49:00;1015,5;;;18,8;81;223;4,3;0,0
01/09/2026;21:54:00;1015,6;;;18,8;81;227;4,4;0,0
01/09/2026;21:59:00;1015,7;;;18,7;81;233;3,9;0,0
01/09/2026;22:04:00;1015,8;;;18,7;81;236;3,8;0,0
01/09/2026;22:09:00;1015,7;;;18,7;81;238;3,9;0,0
01/09/2026;22:14:00;1015,7;;;18,7;81;239;3,7;0,0
01/09/2026;22:19:00;1015,7;;;18,7;81;241;3,8;0,0
01/09/2026;22:24:00;1015,8;;;18,7;81;248;4,3;0,0
01/09/2026;22:29:00;1015,8;;;18,7;81;241;4,2;0,0
01/09/2026;22:34:00;1015,9;;;18,7;81;240;3,9;0,0
01/09/2026;22:39:00;1016,0;;;18,6;81;241;4,0;0,0
01/09/2026;22:44:00;1016,0;;;18,6;81;239;4,3;0,0
01/09/2026;22:49:00;1016,0;;;18,6;81;243;4,5;0,0
01/09/2026;22:54:00;1016,0;;;18,5;81;239;4,3;0,0
01/09/2026;22:59:00;1016,1;;;18,5;81;231;4,2;0,0
01/09/2026;23:04:00;1016,1;;;18,5;81;235;4,8;0,0
01/09/2026;23:09:00;1016,2;;;18,5;81;245;3,5;0,0
01/09/2026;23:14:00;1016,2;;;18,5;81;245;3,8;0,0
01/09/2026;23:19:00;1016,3;;;18,5;81;233;4,1;0,0
01/09/2026;23:24:00;1016,3;;;18,5;81;239;4,7;0,0
01/09/2026;23:29:00;1016,3;;;18,5;81;246;4,2;0,0
01/09/2026;23:34:00;1016,4;;;18,5;81;236;4,0;0,0
01/09/2026;23:39:00;1016,4;;;18,5;81;236;4,5;0,0
01/09/2026;23:44:00;1016,4;;;18,4;81;231;4,0;0,0
01/09/2026;23:49:00;1016,4;;;18,5;81;240;3,9;0,0
01/09/2026;23:54:00;1016,4;;;18,4;81;236;4,4;0,0
01/09/2026;23:59:00;1016,4;;;18,4;81;240;4,2;0,0
